History Data
| Date (GMT-7:00) | CPM | ACPM | uSv/h | Latitude | Longitude | Altitude | CO | CO2 | TVOC | HCHO | Air Pressure | Temperature | Humidity | Type |
|---|---|---|---|---|---|---|---|---|---|---|---|---|---|---|
| 2026-07-21 00:09:16 | 9 | 16.90 | 0.045000 | 41.649648 | 41.62752893 | 0 | 0 | 0 | 0 | 0 | 0 | 0 | 0 | STD5.60 |
| 2026-07-21 00:04:10 | 24 | 15.80 | 0.120000 | 41.649648 | 41.62752893 | 0 | 0 | 0 | 0 | 0 | 0 | 0 | 0 | STD5.60 |
| 2026-07-20 23:59:09 | 15 | 16.60 | 0.075000 | 41.649648 | 41.62752893 | 0 | 0 | 0 | 0 | 0 | 0 | 0 | 0 | STD5.60 |
| 2026-07-20 23:54:07 | 18 | 16.80 | 0.090000 | 41.649648 | 41.62752893 | 0 | 0 | 0 | 0 | 0 | 0 | 0 | 0 | STD5.60 |
| 2026-07-20 23:49:05 | 12 | 16.40 | 0.060000 | 41.649648 | 41.62752893 | 0 | 0 | 0 | 0 | 0 | 0 | 0 | 0 | STD5.60 |
| 2026-07-20 23:44:04 | 17 | 16.80 | 0.085000 | 41.649648 | 41.62752893 | 0 | 0 | 0 | 0 | 0 | 0 | 0 | 0 | STD5.60 |
| 2026-07-20 23:39:02 | 13 | 16.00 | 0.065000 | 41.649648 | 41.62752893 | 0 | 0 | 0 | 0 | 0 | 0 | 0 | 0 | STD5.60 |
| 2026-07-20 23:34:00 | 16 | 14.00 | 0.080000 | 41.649648 | 41.62752893 | 0 | 0 | 0 | 0 | 0 | 0 | 0 | 0 | STD5.60 |
| 2026-07-20 23:28:58 | 7 | 15.30 | 0.035000 | 41.649648 | 41.62752893 | 0 | 0 | 0 | 0 | 0 | 0 | 0 | 0 | STD5.60 |
| 2026-07-20 23:23:56 | 16 | 19.20 | 0.080000 | 41.649648 | 41.62752893 | 0 | 0 | 0 | 0 | 0 | 0 | 0 | 0 | STD5.60 |
| 2026-07-20 23:18:54 | 20 | 16.00 | 0.100000 | 41.649648 | 41.62752893 | 0 | 0 | 0 | 0 | 0 | 0 | 0 | 0 | STD5.60 |
| 2026-07-20 23:13:53 | 8 | 13.90 | 0.040000 | 41.649648 | 41.62752893 | 0 | 0 | 0 | 0 | 0 | 0 | 0 | 0 | STD5.60 |
| 2026-07-20 23:08:51 | 15 | 16.80 | 0.075000 | 41.649648 | 41.62752893 | 0 | 0 | 0 | 0 | 0 | 0 | 0 | 0 | STD5.60 |
| 2026-07-20 23:03:46 | 18 | 15.90 | 0.090000 | 41.649648 | 41.62752893 | 0 | 0 | 0 | 0 | 0 | 0 | 0 | 0 | STD5.60 |
| 2026-07-20 22:58:44 | 13 | 13.30 | 0.065000 | 41.649648 | 41.62752893 | 0 | 0 | 0 | 0 | 0 | 0 | 0 | 0 | STD5.60 |
| 2026-07-20 22:53:43 | 9 | 17.60 | 0.045000 | 41.649648 | 41.62752893 | 0 | 0 | 0 | 0 | 0 | 0 | 0 | 0 | STD5.60 |
| 2026-07-20 22:48:40 | 21 | 21.30 | 0.105000 | 41.649648 | 41.62752893 | 0 | 0 | 0 | 0 | 0 | 0 | 0 | 0 | STD5.60 |
| 2026-07-20 22:43:39 | 25 | 18.30 | 0.125000 | 41.649648 | 41.62752893 | 0 | 0 | 0 | 0 | 0 | 0 | 0 | 0 | STD5.60 |
| 2026-07-20 22:38:37 | 16 | 17.30 | 0.080000 | 41.649648 | 41.62752893 | 0 | 0 | 0 | 0 | 0 | 0 | 0 | 0 | STD5.60 |
| 2026-07-20 22:33:35 | 16 | 19.40 | 0.080000 | 41.649648 | 41.62752893 | 0 | 0 | 0 | 0 | 0 | 0 | 0 | 0 | STD5.60 |
| 2026-07-20 22:28:33 | 24 | 19.70 | 0.120000 | 41.649648 | 41.62752893 | 0 | 0 | 0 | 0 | 0 | 0 | 0 | 0 | STD5.60 |
| 2026-07-20 22:23:31 | 17 | 17.70 | 0.085000 | 41.649648 | 41.62752893 | 0 | 0 | 0 | 0 | 0 | 0 | 0 | 0 | STD5.60 |
| 2026-07-20 22:18:29 | 13 | 15.70 | 0.065000 | 41.649648 | 41.62752893 | 0 | 0 | 0 | 0 | 0 | 0 | 0 | 0 | STD5.60 |
| 2026-07-20 22:13:27 | 18 | 16.60 | 0.090000 | 41.649648 | 41.62752893 | 0 | 0 | 0 | 0 | 0 | 0 | 0 | 0 | STD5.60 |
| 2026-07-20 22:08:25 | 14 | 17.50 | 0.070000 | 41.649648 | 41.62752893 | 0 | 0 | 0 | 0 | 0 | 0 | 0 | 0 | STD5.60 |
| 2026-07-20 22:03:21 | 13 | 17.10 | 0.065000 | 41.649648 | 41.62752893 | 0 | 0 | 0 | 0 | 0 | 0 | 0 | 0 | STD5.60 |
| 2026-07-20 21:58:20 | 15 | 16.90 | 0.075000 | 41.649648 | 41.62752893 | 0 | 0 | 0 | 0 | 0 | 0 | 0 | 0 | STD5.60 |
| 2026-07-20 21:53:18 | 15 | 17.90 | 0.075000 | 41.649648 | 41.62752893 | 0 | 0 | 0 | 0 | 0 | 0 | 0 | 0 | STD5.60 |
| 2026-07-20 21:48:16 | 16 | 18.50 | 0.080000 | 41.649648 | 41.62752893 | 0 | 0 | 0 | 0 | 0 | 0 | 0 | 0 | STD5.60 |
| 2026-07-20 21:43:14 | 9 | 17.10 | 0.045000 | 41.649648 | 41.62752893 | 0 | 0 | 0 | 0 | 0 | 0 | 0 | 0 | STD5.60 |
| 2026-07-20 21:38:12 | 18 | 19.20 | 0.090000 | 41.649648 | 41.62752893 | 0 | 0 | 0 | 0 | 0 | 0 | 0 | 0 | STD5.60 |
| 2026-07-20 21:33:11 | 26 | 21.20 | 0.130000 | 41.649648 | 41.62752893 | 0 | 0 | 0 | 0 | 0 | 0 | 0 | 0 | STD5.60 |
| 2026-07-20 21:28:09 | 20 | 21.30 | 0.100000 | 41.649648 | 41.62752893 | 0 | 0 | 0 | 0 | 0 | 0 | 0 | 0 | STD5.60 |
| 2026-07-20 21:23:07 | 14 | 19.40 | 0.070000 | 41.649648 | 41.62752893 | 0 | 0 | 0 | 0 | 0 | 0 | 0 | 0 | STD5.60 |
| 2026-07-20 21:18:05 | 8 | 16.60 | 0.040000 | 41.649648 | 41.62752893 | 0 | 0 | 0 | 0 | 0 | 0 | 0 | 0 | STD5.60 |
| 2026-07-20 21:13:04 | 12 | 17.10 | 0.060000 | 41.649648 | 41.62752893 | 0 | 0 | 0 | 0 | 0 | 0 | 0 | 0 | STD5.60 |
| 2026-07-20 21:08:02 | 19 | 18.30 | 0.095000 | 41.649648 | 41.62752893 | 0 | 0 | 0 | 0 | 0 | 0 | 0 | 0 | STD5.60 |
| 2026-07-20 21:02:58 | 18 | 18.00 | 0.090000 | 41.649648 | 41.62752893 | 0 | 0 | 0 | 0 | 0 | 0 | 0 | 0 | STD5.60 |
| 2026-07-20 20:57:56 | 14 | 17.20 | 0.070000 | 41.649648 | 41.62752893 | 0 | 0 | 0 | 0 | 0 | 0 | 0 | 0 | STD5.60 |
| 2026-07-20 20:52:55 | 17 | 17.90 | 0.085000 | 41.649648 | 41.62752893 | 0 | 0 | 0 | 0 | 0 | 0 | 0 | 0 | STD5.60 |
| 2026-07-20 20:47:53 | 24 | 18.80 | 0.120000 | 41.649648 | 41.62752893 | 0 | 0 | 0 | 0 | 0 | 0 | 0 | 0 | STD5.60 |
| 2026-07-20 20:42:51 | 19 | 19.50 | 0.095000 | 41.649648 | 41.62752893 | 0 | 0 | 0 | 0 | 0 | 0 | 0 | 0 | STD5.60 |
| 2026-07-20 20:32:47 | 15 | 17.30 | 0.075000 | 41.649648 | 41.62752893 | 0 | 0 | 0 | 0 | 0 | 0 | 0 | 0 | STD5.60 |
| 2026-07-20 20:27:45 | 15 | 15.80 | 0.075000 | 41.649648 | 41.62752893 | 0 | 0 | 0 | 0 | 0 | 0 | 0 | 0 | STD5.60 |
| 2026-07-20 20:22:44 | 17 | 19.70 | 0.085000 | 41.649648 | 41.62752893 | 0 | 0 | 0 | 0 | 0 | 0 | 0 | 0 | STD5.60 |
| 2026-07-20 20:17:42 | 25 | 20.10 | 0.125000 | 41.649648 | 41.62752893 | 0 | 0 | 0 | 0 | 0 | 0 | 0 | 0 | STD5.60 |
| 2026-07-20 20:12:40 | 18 | 16.00 | 0.090000 | 41.649648 | 41.62752893 | 0 | 0 | 0 | 0 | 0 | 0 | 0 | 0 | STD5.60 |
| 2026-07-20 20:07:38 | 16 | 16.80 | 0.080000 | 41.649648 | 41.62752893 | 0 | 0 | 0 | 0 | 0 | 0 | 0 | 0 | STD5.60 |
| 2026-07-20 20:02:35 | 21 | 17.20 | 0.105000 | 41.649648 | 41.62752893 | 0 | 0 | 0 | 0 | 0 | 0 | 0 | 0 | STD5.60 |
| 2026-07-20 19:57:33 | 11 | 17.30 | 0.055000 | 41.649648 | 41.62752893 | 0 | 0 | 0 | 0 | 0 | 0 | 0 | 0 | STD5.60 |
| 2026-07-20 19:52:31 | 18 | 18.70 | 0.090000 | 41.649648 | 41.62752893 | 0 | 0 | 0 | 0 | 0 | 0 | 0 | 0 | STD5.60 |
| 2026-07-20 19:47:29 | 26 | 17.00 | 0.130000 | 41.649648 | 41.62752893 | 0 | 0 | 0 | 0 | 0 | 0 | 0 | 0 | STD5.60 |
| 2026-07-20 19:42:27 | 13 | 16.70 | 0.065000 | 41.649648 | 41.62752893 | 0 | 0 | 0 | 0 | 0 | 0 | 0 | 0 | STD5.60 |
| 2026-07-20 19:37:26 | 20 | 17.50 | 0.100000 | 41.649648 | 41.62752893 | 0 | 0 | 0 | 0 | 0 | 0 | 0 | 0 | STD5.60 |
| 2026-07-20 19:32:24 | 16 | 16.30 | 0.080000 | 41.649648 | 41.62752893 | 0 | 0 | 0 | 0 | 0 | 0 | 0 | 0 | STD5.60 |
| 2026-07-20 19:27:22 | 21 | 17.70 | 0.105000 | 41.649648 | 41.62752893 | 0 | 0 | 0 | 0 | 0 | 0 | 0 | 0 | STD5.60 |
| 2026-07-20 19:22:20 | 24 | 18.30 | 0.120000 | 41.649648 | 41.62752893 | 0 | 0 | 0 | 0 | 0 | 0 | 0 | 0 | STD5.60 |
| 2026-07-20 19:17:18 | 18 | 18.60 | 0.090000 | 41.649648 | 41.62752893 | 0 | 0 | 0 | 0 | 0 | 0 | 0 | 0 | STD5.60 |
| 2026-07-20 19:12:17 | 26 | 20.10 | 0.130000 | 41.649648 | 41.62752893 | 0 | 0 | 0 | 0 | 0 | 0 | 0 | 0 | STD5.60 |
| 2026-07-20 19:07:14 | 17 | 18.50 | 0.085000 | 41.649648 | 41.62752893 | 0 | 0 | 0 | 0 | 0 | 0 | 0 | 0 | STD5.60 |
| 2026-07-20 19:02:11 | 18 | 18.10 | 0.090000 | 41.649648 | 41.62752893 | 0 | 0 | 0 | 0 | 0 | 0 | 0 | 0 | STD5.60 |
| 2026-07-20 18:57:09 | 19 | 19.10 | 0.095000 | 41.649648 | 41.62752893 | 0 | 0 | 0 | 0 | 0 | 0 | 0 | 0 | STD5.60 |
| 2026-07-20 18:52:07 | 24 | 17.20 | 0.120000 | 41.649648 | 41.62752893 | 0 | 0 | 0 | 0 | 0 | 0 | 0 | 0 | STD5.60 |
| 2026-07-20 18:47:05 | 12 | 17.40 | 0.060000 | 41.649648 | 41.62752893 | 0 | 0 | 0 | 0 | 0 | 0 | 0 | 0 | STD5.60 |
| 2026-07-20 18:42:03 | 17 | 19.40 | 0.085000 | 41.649648 | 41.62752893 | 0 | 0 | 0 | 0 | 0 | 0 | 0 | 0 | STD5.60 |
| 2026-07-20 18:37:02 | 18 | 19.00 | 0.090000 | 41.649648 | 41.62752893 | 0 | 0 | 0 | 0 | 0 | 0 | 0 | 0 | STD5.60 |
| 2026-07-20 18:32:00 | 20 | 18.70 | 0.100000 | 41.649648 | 41.62752893 | 0 | 0 | 0 | 0 | 0 | 0 | 0 | 0 | STD5.60 |
| 2026-07-20 18:26:58 | 22 | 18.30 | 0.110000 | 41.649648 | 41.62752893 | 0 | 0 | 0 | 0 | 0 | 0 | 0 | 0 | STD5.60 |
| 2026-07-20 18:21:56 | 18 | 20.30 | 0.090000 | 41.649648 | 41.62752893 | 0 | 0 | 0 | 0 | 0 | 0 | 0 | 0 | STD5.60 |
| 2026-07-20 18:16:55 | 21 | 20.30 | 0.105000 | 41.649648 | 41.62752893 | 0 | 0 | 0 | 0 | 0 | 0 | 0 | 0 | STD5.60 |
| 2026-07-20 18:11:53 | 17 | 17.70 | 0.085000 | 41.649648 | 41.62752893 | 0 | 0 | 0 | 0 | 0 | 0 | 0 | 0 | STD5.60 |
| 2026-07-20 18:06:51 | 16 | 17.20 | 0.080000 | 41.649648 | 41.62752893 | 0 | 0 | 0 | 0 | 0 | 0 | 0 | 0 | STD5.60 |
| 2026-07-20 18:01:47 | 20 | 18.00 | 0.100000 | 41.649648 | 41.62752893 | 0 | 0 | 0 | 0 | 0 | 0 | 0 | 0 | STD5.60 |
| 2026-07-20 17:56:45 | 20 | 18.40 | 0.100000 | 41.649648 | 41.62752893 | 0 | 0 | 0 | 0 | 0 | 0 | 0 | 0 | STD5.60 |
| 2026-07-20 17:51:44 | 25 | 18.10 | 0.125000 | 41.649648 | 41.62752893 | 0 | 0 | 0 | 0 | 0 | 0 | 0 | 0 | STD5.60 |
| 2026-07-20 17:46:42 | 17 | 17.80 | 0.085000 | 41.649648 | 41.62752893 | 0 | 0 | 0 | 0 | 0 | 0 | 0 | 0 | STD5.60 |
| 2026-07-20 17:41:40 | 16 | 17.00 | 0.080000 | 41.649648 | 41.62752893 | 0 | 0 | 0 | 0 | 0 | 0 | 0 | 0 | STD5.60 |
| 2026-07-20 17:36:38 | 12 | 18.50 | 0.060000 | 41.649648 | 41.62752893 | 0 | 0 | 0 | 0 | 0 | 0 | 0 | 0 | STD5.60 |
| 2026-07-20 17:31:36 | 23 | 19.60 | 0.115000 | 41.649648 | 41.62752893 | 0 | 0 | 0 | 0 | 0 | 0 | 0 | 0 | STD5.60 |
| 2026-07-20 17:26:36 | 26 | 19.00 | 0.130000 | 41.649648 | 41.62752893 | 0 | 0 | 0 | 0 | 0 | 0 | 0 | 0 | STD5.60 |
| 2026-07-20 17:21:33 | 17 | 17.90 | 0.085000 | 41.649648 | 41.62752893 | 0 | 0 | 0 | 0 | 0 | 0 | 0 | 0 | STD5.60 |
| 2026-07-20 17:16:31 | 17 | 15.90 | 0.085000 | 41.649648 | 41.62752893 | 0 | 0 | 0 | 0 | 0 | 0 | 0 | 0 | STD5.60 |
| 2026-07-20 17:11:30 | 22 | 17.40 | 0.110000 | 41.649648 | 41.62752893 | 0 | 0 | 0 | 0 | 0 | 0 | 0 | 0 | STD5.60 |
| 2026-07-20 17:06:28 | 17 | 18.90 | 0.085000 | 41.649648 | 41.62752893 | 0 | 0 | 0 | 0 | 0 | 0 | 0 | 0 | STD5.60 |
| 2026-07-20 17:01:23 | 19 | 18.60 | 0.095000 | 41.649648 | 41.62752893 | 0 | 0 | 0 | 0 | 0 | 0 | 0 | 0 | STD5.60 |
| 2026-07-20 16:56:21 | 22 | 18.20 | 0.110000 | 41.649648 | 41.62752893 | 0 | 0 | 0 | 0 | 0 | 0 | 0 | 0 | STD5.60 |
| 2026-07-20 16:51:19 | 14 | 17.50 | 0.070000 | 41.649648 | 41.62752893 | 0 | 0 | 0 | 0 | 0 | 0 | 0 | 0 | STD5.60 |
| 2026-07-20 16:46:17 | 16 | 18.70 | 0.080000 | 41.649648 | 41.62752893 | 0 | 0 | 0 | 0 | 0 | 0 | 0 | 0 | STD5.60 |
| 2026-07-20 16:41:16 | 23 | 19.70 | 0.115000 | 41.649648 | 41.62752893 | 0 | 0 | 0 | 0 | 0 | 0 | 0 | 0 | STD5.60 |
| 2026-07-20 16:36:14 | 14 | 18.90 | 0.070000 | 41.649648 | 41.62752893 | 0 | 0 | 0 | 0 | 0 | 0 | 0 | 0 | STD5.60 |
| 2026-07-20 16:31:12 | 18 | 18.70 | 0.090000 | 41.649648 | 41.62752893 | 0 | 0 | 0 | 0 | 0 | 0 | 0 | 0 | STD5.60 |
| 2026-07-20 16:26:10 | 22 | 17.20 | 0.110000 | 41.649648 | 41.62752893 | 0 | 0 | 0 | 0 | 0 | 0 | 0 | 0 | STD5.60 |
| 2026-07-20 16:21:08 | 16 | 17.10 | 0.080000 | 41.649648 | 41.62752893 | 0 | 0 | 0 | 0 | 0 | 0 | 0 | 0 | STD5.60 |
| 2026-07-20 16:16:06 | 16 | 18.90 | 0.080000 | 41.649648 | 41.62752893 | 0 | 0 | 0 | 0 | 0 | 0 | 0 | 0 | STD5.60 |
| 2026-07-20 16:11:04 | 17 | 19.40 | 0.085000 | 41.649648 | 41.62752893 | 0 | 0 | 0 | 0 | 0 | 0 | 0 | 0 | STD5.60 |
| 2026-07-20 16:06:02 | 14 | 19.60 | 0.070000 | 41.649648 | 41.62752893 | 0 | 0 | 0 | 0 | 0 | 0 | 0 | 0 | STD5.60 |
| 2026-07-20 16:00:58 | 19 | 18.10 | 0.095000 | 41.649648 | 41.62752893 | 0 | 0 | 0 | 0 | 0 | 0 | 0 | 0 | STD5.60 |
| 2026-07-20 15:55:56 | 20 | 17.60 | 0.100000 | 41.649648 | 41.62752893 | 0 | 0 | 0 | 0 | 0 | 0 | 0 | 0 | STD5.60 |
| 2026-07-20 15:50:54 | 21 | 18.30 | 0.105000 | 41.649648 | 41.62752893 | 0 | 0 | 0 | 0 | 0 | 0 | 0 | 0 | STD5.60 |
| 2026-07-20 15:45:52 | 19 | 19.90 | 0.095000 | 41.649648 | 41.62752893 | 0 | 0 | 0 | 0 | 0 | 0 | 0 | 0 | STD5.60 |
| 2026-07-20 15:40:51 | 24 | 19.30 | 0.120000 | 41.649648 | 41.62752893 | 0 | 0 | 0 | 0 | 0 | 0 | 0 | 0 | STD5.60 |
| 2026-07-20 15:35:49 | 14 | 16.50 | 0.070000 | 41.649648 | 41.62752893 | 0 | 0 | 0 | 0 | 0 | 0 | 0 | 0 | STD5.60 |
| 2026-07-20 15:30:47 | 19 | 14.80 | 0.095000 | 41.649648 | 41.62752893 | 0 | 0 | 0 | 0 | 0 | 0 | 0 | 0 | STD5.60 |
| 2026-07-20 15:25:45 | 14 | 15.70 | 0.070000 | 41.649648 | 41.62752893 | 0 | 0 | 0 | 0 | 0 | 0 | 0 | 0 | STD5.60 |
| 2026-07-20 15:20:43 | 17 | 18.10 | 0.085000 | 41.649648 | 41.62752893 | 0 | 0 | 0 | 0 | 0 | 0 | 0 | 0 | STD5.60 |
| 2026-07-20 15:15:41 | 18 | 15.80 | 0.090000 | 41.649648 | 41.62752893 | 0 | 0 | 0 | 0 | 0 | 0 | 0 | 0 | STD5.60 |
| 2026-07-20 15:10:40 | 14 | 16.50 | 0.070000 | 41.649648 | 41.62752893 | 0 | 0 | 0 | 0 | 0 | 0 | 0 | 0 | STD5.60 |
| 2026-07-20 15:05:38 | 29 | 19.10 | 0.145000 | 41.649648 | 41.62752893 | 0 | 0 | 0 | 0 | 0 | 0 | 0 | 0 | STD5.60 |
| 2026-07-20 15:00:34 | 16 | 19.10 | 0.080000 | 41.649648 | 41.62752893 | 0 | 0 | 0 | 0 | 0 | 0 | 0 | 0 | STD5.60 |
| 2026-07-20 14:55:32 | 24 | 18.10 | 0.120000 | 41.649648 | 41.62752893 | 0 | 0 | 0 | 0 | 0 | 0 | 0 | 0 | STD5.60 |
| 2026-07-20 14:50:30 | 16 | 19.10 | 0.080000 | 41.649648 | 41.62752893 | 0 | 0 | 0 | 0 | 0 | 0 | 0 | 0 | STD5.60 |
| 2026-07-20 14:45:28 | 20 | 17.70 | 0.100000 | 41.649648 | 41.62752893 | 0 | 0 | 0 | 0 | 0 | 0 | 0 | 0 | STD5.60 |
| 2026-07-20 14:40:27 | 11 | 16.30 | 0.055000 | 41.649648 | 41.62752893 | 0 | 0 | 0 | 0 | 0 | 0 | 0 | 0 | STD5.60 |
| 2026-07-20 14:35:25 | 21 | 18.30 | 0.105000 | 41.649648 | 41.62752893 | 0 | 0 | 0 | 0 | 0 | 0 | 0 | 0 | STD5.60 |
| 2026-07-20 14:30:23 | 23 | 17.40 | 0.115000 | 41.649648 | 41.62752893 | 0 | 0 | 0 | 0 | 0 | 0 | 0 | 0 | STD5.60 |
| 2026-07-20 14:25:21 | 17 | 17.60 | 0.085000 | 41.649648 | 41.62752893 | 0 | 0 | 0 | 0 | 0 | 0 | 0 | 0 | STD5.60 |
| 2026-07-20 14:20:19 | 23 | 18.20 | 0.115000 | 41.649648 | 41.62752893 | 0 | 0 | 0 | 0 | 0 | 0 | 0 | 0 | STD5.60 |
| 2026-07-20 14:15:17 | 16 | 18.20 | 0.080000 | 41.649648 | 41.62752893 | 0 | 0 | 0 | 0 | 0 | 0 | 0 | 0 | STD5.60 |
| 2026-07-20 14:10:16 | 17 | 18.60 | 0.085000 | 41.649648 | 41.62752893 | 0 | 0 | 0 | 0 | 0 | 0 | 0 | 0 | STD5.60 |
| 2026-07-20 14:05:14 | 16 | 17.30 | 0.080000 | 41.649648 | 41.62752893 | 0 | 0 | 0 | 0 | 0 | 0 | 0 | 0 | STD5.60 |
| 2026-07-20 14:00:12 | 15 | 15.10 | 0.075000 | 41.649648 | 41.62752893 | 0 | 0 | 0 | 0 | 0 | 0 | 0 | 0 | STD5.60 |
| 2026-07-20 13:55:08 | 12 | 16.40 | 0.060000 | 41.649648 | 41.62752893 | 0 | 0 | 0 | 0 | 0 | 0 | 0 | 0 | STD5.60 |
| 2026-07-20 13:50:08 | 18 | 16.80 | 0.090000 | 41.649648 | 41.62752893 | 0 | 0 | 0 | 0 | 0 | 0 | 0 | 0 | STD5.60 |
| 2026-07-20 13:45:08 | 16 | 15.90 | 0.080000 | 41.649648 | 41.62752893 | 0 | 0 | 0 | 0 | 0 | 0 | 0 | 0 | STD5.60 |
| 2026-07-20 13:40:03 | 14 | 18.90 | 0.070000 | 41.649648 | 41.62752893 | 0 | 0 | 0 | 0 | 0 | 0 | 0 | 0 | STD5.60 |
| 2026-07-20 13:35:01 | 21 | 19.10 | 0.105000 | 41.649648 | 41.62752893 | 0 | 0 | 0 | 0 | 0 | 0 | 0 | 0 | STD5.60 |
| 2026-07-20 13:29:59 | 20 | 19.00 | 0.100000 | 41.649648 | 41.62752893 | 0 | 0 | 0 | 0 | 0 | 0 | 0 | 0 | STD5.60 |
| 2026-07-20 13:24:57 | 18 | 19.20 | 0.090000 | 41.649648 | 41.62752893 | 0 | 0 | 0 | 0 | 0 | 0 | 0 | 0 | STD5.60 |
| 2026-07-20 13:19:55 | 22 | 16.90 | 0.110000 | 41.649648 | 41.62752893 | 0 | 0 | 0 | 0 | 0 | 0 | 0 | 0 | STD5.60 |
| 2026-07-20 13:14:53 | 13 | 15.60 | 0.065000 | 41.649648 | 41.62752893 | 0 | 0 | 0 | 0 | 0 | 0 | 0 | 0 | STD5.60 |
| 2026-07-20 13:09:52 | 19 | 14.60 | 0.095000 | 41.649648 | 41.62752893 | 0 | 0 | 0 | 0 | 0 | 0 | 0 | 0 | STD5.60 |
| 2026-07-20 13:04:50 | 13 | 16.90 | 0.065000 | 41.649648 | 41.62752893 | 0 | 0 | 0 | 0 | 0 | 0 | 0 | 0 | STD5.60 |
| 2026-07-20 12:59:46 | 18 | 20.30 | 0.090000 | 41.649648 | 41.62752893 | 0 | 0 | 0 | 0 | 0 | 0 | 0 | 0 | STD5.60 |
| 2026-07-20 12:54:44 | 16 | 21.30 | 0.080000 | 41.649648 | 41.62752893 | 0 | 0 | 0 | 0 | 0 | 0 | 0 | 0 | STD5.60 |
| 2026-07-20 12:49:42 | 26 | 18.90 | 0.130000 | 41.649648 | 41.62752893 | 0 | 0 | 0 | 0 | 0 | 0 | 0 | 0 | STD5.60 |
| 2026-07-20 12:44:41 | 23 | 16.70 | 0.115000 | 41.649648 | 41.62752893 | 0 | 0 | 0 | 0 | 0 | 0 | 0 | 0 | STD5.60 |
| 2026-07-20 12:39:39 | 17 | 17.30 | 0.085000 | 41.649648 | 41.62752893 | 0 | 0 | 0 | 0 | 0 | 0 | 0 | 0 | STD5.60 |
| 2026-07-20 12:34:37 | 23 | 18.30 | 0.115000 | 41.649648 | 41.62752893 | 0 | 0 | 0 | 0 | 0 | 0 | 0 | 0 | STD5.60 |
| 2026-07-20 12:29:35 | 9 | 16.80 | 0.045000 | 41.649648 | 41.62752893 | 0 | 0 | 0 | 0 | 0 | 0 | 0 | 0 | STD5.60 |
| 2026-07-20 12:24:34 | 19 | 16.80 | 0.095000 | 41.649648 | 41.62752893 | 0 | 0 | 0 | 0 | 0 | 0 | 0 | 0 | STD5.60 |
| 2026-07-20 12:19:32 | 16 | 19.50 | 0.080000 | 41.649648 | 41.62752893 | 0 | 0 | 0 | 0 | 0 | 0 | 0 | 0 | STD5.60 |
| 2026-07-20 12:14:30 | 14 | 18.90 | 0.070000 | 41.649648 | 41.62752893 | 0 | 0 | 0 | 0 | 0 | 0 | 0 | 0 | STD5.60 |
| 2026-07-20 12:09:28 | 16 | 17.60 | 0.080000 | 41.649648 | 41.62752893 | 0 | 0 | 0 | 0 | 0 | 0 | 0 | 0 | STD5.60 |
| 2026-07-20 12:04:26 | 20 | 16.70 | 0.100000 | 41.649648 | 41.62752893 | 0 | 0 | 0 | 0 | 0 | 0 | 0 | 0 | STD5.60 |
| 2026-07-20 11:59:22 | 16 | 17.80 | 0.080000 | 41.649648 | 41.62752893 | 0 | 0 | 0 | 0 | 0 | 0 | 0 | 0 | STD5.60 |
| 2026-07-20 11:54:21 | 21 | 19.40 | 0.105000 | 41.649648 | 41.62752893 | 0 | 0 | 0 | 0 | 0 | 0 | 0 | 0 | STD5.60 |
| 2026-07-20 11:49:19 | 20 | 19.70 | 0.100000 | 41.649648 | 41.62752893 | 0 | 0 | 0 | 0 | 0 | 0 | 0 | 0 | STD5.60 |
| 2026-07-20 11:44:17 | 24 | 18.20 | 0.120000 | 41.649648 | 41.62752893 | 0 | 0 | 0 | 0 | 0 | 0 | 0 | 0 | STD5.60 |
| 2026-07-20 11:39:16 | 21 | 17.80 | 0.105000 | 41.649648 | 41.62752893 | 0 | 0 | 0 | 0 | 0 | 0 | 0 | 0 | STD5.60 |
| 2026-07-20 11:34:14 | 19 | 17.90 | 0.095000 | 41.649648 | 41.62752893 | 0 | 0 | 0 | 0 | 0 | 0 | 0 | 0 | STD5.60 |
| 2026-07-20 11:29:12 | 14 | 19.40 | 0.070000 | 41.649648 | 41.62752893 | 0 | 0 | 0 | 0 | 0 | 0 | 0 | 0 | STD5.60 |
| 2026-07-20 11:24:10 | 18 | 20.80 | 0.090000 | 41.649648 | 41.62752893 | 0 | 0 | 0 | 0 | 0 | 0 | 0 | 0 | STD5.60 |
| 2026-07-20 11:19:08 | 22 | 20.20 | 0.110000 | 41.649648 | 41.62752893 | 0 | 0 | 0 | 0 | 0 | 0 | 0 | 0 | STD5.60 |
| 2026-07-20 11:14:06 | 20 | 20.00 | 0.100000 | 41.649648 | 41.62752893 | 0 | 0 | 0 | 0 | 0 | 0 | 0 | 0 | STD5.60 |
| 2026-07-20 11:09:05 | 19 | 19.30 | 0.095000 | 41.649648 | 41.62752893 | 0 | 0 | 0 | 0 | 0 | 0 | 0 | 0 | STD5.60 |
| 2026-07-20 11:04:03 | 25 | 20.40 | 0.125000 | 41.649648 | 41.62752893 | 0 | 0 | 0 | 0 | 0 | 0 | 0 | 0 | STD5.60 |
| 2026-07-20 10:58:59 | 20 | 20.20 | 0.100000 | 41.649648 | 41.62752893 | 0 | 0 | 0 | 0 | 0 | 0 | 0 | 0 | STD5.60 |
| 2026-07-20 10:53:57 | 21 | 18.20 | 0.105000 | 41.649648 | 41.62752893 | 0 | 0 | 0 | 0 | 0 | 0 | 0 | 0 | STD5.60 |
| 2026-07-20 10:48:55 | 16 | 17.60 | 0.080000 | 41.649648 | 41.62752893 | 0 | 0 | 0 | 0 | 0 | 0 | 0 | 0 | STD5.60 |
| 2026-07-20 10:43:54 | 24 | 17.90 | 0.120000 | 41.649648 | 41.62752893 | 0 | 0 | 0 | 0 | 0 | 0 | 0 | 0 | STD5.60 |
| 2026-07-20 10:38:52 | 20 | 17.50 | 0.100000 | 41.649648 | 41.62752893 | 0 | 0 | 0 | 0 | 0 | 0 | 0 | 0 | STD5.60 |
| 2026-07-20 10:33:50 | 13 | 19.40 | 0.065000 | 41.649648 | 41.62752893 | 0 | 0 | 0 | 0 | 0 | 0 | 0 | 0 | STD5.60 |
| 2026-07-20 10:28:48 | 13 | 18.70 | 0.065000 | 41.649648 | 41.62752893 | 0 | 0 | 0 | 0 | 0 | 0 | 0 | 0 | STD5.60 |
| 2026-07-20 10:24:02 | 13 | 14.70 | 0.065000 | 41.649648 | 41.62752893 | 0 | 0 | 0 | 0 | 0 | 0 | 0 | 0 | STD5.60 |
| 2026-07-20 10:18:57 | 16 | 15.60 | 0.080000 | 41.649648 | 41.62752893 | 0 | 0 | 0 | 0 | 0 | 0 | 0 | 0 | STD5.60 |
| 2026-07-20 10:14:18 | 14 | 16.20 | 0.070000 | 41.649648 | 41.62752893 | 0 | 0 | 0 | 0 | 0 | 0 | 0 | 0 | STD5.60 |
| 2026-07-20 10:08:41 | 17 | 16.40 | 0.085000 | 41.649648 | 41.62752893 | 0 | 0 | 0 | 0 | 0 | 0 | 0 | 0 | STD5.60 |
| 2026-07-20 10:03:39 | 12 | 18.60 | 0.060000 | 41.649648 | 41.62752893 | 0 | 0 | 0 | 0 | 0 | 0 | 0 | 0 | STD5.60 |
| 2026-07-20 09:58:35 | 16 | 17.80 | 0.080000 | 41.649648 | 41.62752893 | 0 | 0 | 0 | 0 | 0 | 0 | 0 | 0 | STD5.60 |
| 2026-07-20 09:53:33 | 16 | 16.30 | 0.080000 | 41.649648 | 41.62752893 | 0 | 0 | 0 | 0 | 0 | 0 | 0 | 0 | STD5.60 |
| 2026-07-20 09:48:31 | 18 | 17.70 | 0.090000 | 41.649648 | 41.62752893 | 0 | 0 | 0 | 0 | 0 | 0 | 0 | 0 | STD5.60 |
| 2026-07-20 09:43:30 | 28 | 19.00 | 0.140000 | 41.649648 | 41.62752893 | 0 | 0 | 0 | 0 | 0 | 0 | 0 | 0 | STD5.60 |
| 2026-07-20 09:38:28 | 10 | 18.00 | 0.050000 | 41.649648 | 41.62752893 | 0 | 0 | 0 | 0 | 0 | 0 | 0 | 0 | STD5.60 |
| 2026-07-20 09:33:26 | 21 | 18.70 | 0.105000 | 41.649648 | 41.62752893 | 0 | 0 | 0 | 0 | 0 | 0 | 0 | 0 | STD5.60 |
| 2026-07-20 09:28:24 | 20 | 20.70 | 0.100000 | 41.649648 | 41.62752893 | 0 | 0 | 0 | 0 | 0 | 0 | 0 | 0 | STD5.60 |
| 2026-07-20 09:23:23 | 24 | 18.60 | 0.120000 | 41.649648 | 41.62752893 | 0 | 0 | 0 | 0 | 0 | 0 | 0 | 0 | STD5.60 |
| 2026-07-20 09:18:21 | 15 | 16.20 | 0.075000 | 41.649648 | 41.62752893 | 0 | 0 | 0 | 0 | 0 | 0 | 0 | 0 | STD5.60 |
| 2026-07-20 09:13:19 | 19 | 17.60 | 0.095000 | 41.649648 | 41.62752893 | 0 | 0 | 0 | 0 | 0 | 0 | 0 | 0 | STD5.60 |
| 2026-07-20 09:08:18 | 20 | 9.20 | 0.100000 | 41.649648 | 41.62752893 | 0 | 0 | 0 | 0 | 0 | 0 | 0 | 0 | STD5.60 |
| 2026-07-20 08:58:36 | 20 | 19.10 | 0.100000 | 41.649648 | 41.62752893 | 0 | 0 | 0 | 0 | 0 | 0 | 0 | 0 | STD5.60 |
| 2026-07-20 08:53:34 | 24 | 20.70 | 0.120000 | 41.649648 | 41.62752893 | 0 | 0 | 0 | 0 | 0 | 0 | 0 | 0 | STD5.60 |
| 2026-07-20 08:48:32 | 24 | 20.10 | 0.120000 | 41.649648 | 41.62752893 | 0 | 0 | 0 | 0 | 0 | 0 | 0 | 0 | STD5.60 |
| 2026-07-20 08:43:30 | 11 | 20.20 | 0.055000 | 41.649648 | 41.62752893 | 0 | 0 | 0 | 0 | 0 | 0 | 0 | 0 | STD5.60 |
| 2026-07-20 08:38:26 | 22 | 21.50 | 0.110000 | 41.649648 | 41.62752893 | 0 | 0 | 0 | 0 | 0 | 0 | 0 | 0 | STD5.60 |
| 2026-07-20 08:33:24 | 22 | 18.80 | 0.110000 | 41.649648 | 41.62752893 | 0 | 0 | 0 | 0 | 0 | 0 | 0 | 0 | STD5.60 |
| 2026-07-20 08:28:22 | 20 | 16.40 | 0.100000 | 41.649648 | 41.62752893 | 0 | 0 | 0 | 0 | 0 | 0 | 0 | 0 | STD5.60 |
| 2026-07-20 08:23:21 | 22 | 17.00 | 0.110000 | 41.649648 | 41.62752893 | 0 | 0 | 0 | 0 | 0 | 0 | 0 | 0 | STD5.60 |
| 2026-07-20 08:18:19 | 20 | 18.10 | 0.100000 | 41.649648 | 41.62752893 | 0 | 0 | 0 | 0 | 0 | 0 | 0 | 0 | STD5.60 |
| 2026-07-20 08:13:17 | 15 | 18.10 | 0.075000 | 41.649648 | 41.62752893 | 0 | 0 | 0 | 0 | 0 | 0 | 0 | 0 | STD5.60 |
| 2026-07-20 08:08:15 | 19 | 18.10 | 0.095000 | 41.649648 | 41.62752893 | 0 | 0 | 0 | 0 | 0 | 0 | 0 | 0 | STD5.60 |
| 2026-07-20 08:03:13 | 17 | 18.10 | 0.085000 | 41.649648 | 41.62752893 | 0 | 0 | 0 | 0 | 0 | 0 | 0 | 0 | STD5.60 |
| 2026-07-20 07:58:12 | 22 | 17.20 | 0.110000 | 41.649648 | 41.62752893 | 0 | 0 | 0 | 0 | 0 | 0 | 0 | 0 | STD5.60 |
| 2026-07-20 07:53:09 | 14 | 15.50 | 0.070000 | 41.649648 | 41.62752893 | 0 | 0 | 0 | 0 | 0 | 0 | 0 | 0 | STD5.60 |
| 2026-07-20 07:48:08 | 12 | 16.70 | 0.060000 | 41.649648 | 41.62752893 | 0 | 0 | 0 | 0 | 0 | 0 | 0 | 0 | STD5.60 |
| 2026-07-20 07:43:05 | 23 | 19.90 | 0.115000 | 41.649648 | 41.62752893 | 0 | 0 | 0 | 0 | 0 | 0 | 0 | 0 | STD5.60 |
| 2026-07-20 07:38:02 | 25 | 19.90 | 0.125000 | 41.649648 | 41.62752893 | 0 | 0 | 0 | 0 | 0 | 0 | 0 | 0 | STD5.60 |
| 2026-07-20 07:33:00 | 10 | 17.90 | 0.050000 | 41.649648 | 41.62752893 | 0 | 0 | 0 | 0 | 0 | 0 | 0 | 0 | STD5.60 |
| 2026-07-20 07:28:00 | 16 | 17.20 | 0.080000 | 41.649648 | 41.62752893 | 0 | 0 | 0 | 0 | 0 | 0 | 0 | 0 | STD5.60 |
| 2026-07-20 07:22:56 | 17 | 17.00 | 0.085000 | 41.649648 | 41.62752893 | 0 | 0 | 0 | 0 | 0 | 0 | 0 | 0 | STD5.60 |
| 2026-07-20 07:17:54 | 14 | 18.60 | 0.070000 | 41.649648 | 41.62752893 | 0 | 0 | 0 | 0 | 0 | 0 | 0 | 0 | STD5.60 |
| 2026-07-20 07:12:52 | 27 | 21.50 | 0.135000 | 41.649648 | 41.62752893 | 0 | 0 | 0 | 0 | 0 | 0 | 0 | 0 | STD5.60 |
| 2026-07-20 07:07:50 | 23 | 19.30 | 0.115000 | 41.649648 | 41.62752893 | 0 | 0 | 0 | 0 | 0 | 0 | 0 | 0 | STD5.60 |
| 2026-07-20 07:02:48 | 19 | 15.70 | 0.095000 | 41.649648 | 41.62752893 | 0 | 0 | 0 | 0 | 0 | 0 | 0 | 0 | STD5.60 |
| 2026-07-20 06:57:46 | 15 | 18.70 | 0.075000 | 41.649648 | 41.62752893 | 0 | 0 | 0 | 0 | 0 | 0 | 0 | 0 | STD5.60 |
| 2026-07-20 06:52:44 | 20 | 19.70 | 0.100000 | 41.649648 | 41.62752893 | 0 | 0 | 0 | 0 | 0 | 0 | 0 | 0 | STD5.60 |
| 2026-07-20 06:47:42 | 16 | 16.90 | 0.080000 | 41.649648 | 41.62752893 | 0 | 0 | 0 | 0 | 0 | 0 | 0 | 0 | STD5.60 |
| 2026-07-20 06:42:40 | 14 | 16.60 | 0.070000 | 41.649648 | 41.62752893 | 0 | 0 | 0 | 0 | 0 | 0 | 0 | 0 | STD5.60 |
| 2026-07-20 06:37:35 | 18 | 19.20 | 0.090000 | 41.649648 | 41.62752893 | 0 | 0 | 0 | 0 | 0 | 0 | 0 | 0 | STD5.60 |
| 2026-07-20 06:32:33 | 25 | 19.50 | 0.125000 | 41.649648 | 41.62752893 | 0 | 0 | 0 | 0 | 0 | 0 | 0 | 0 | STD5.60 |
| 2026-07-20 06:27:31 | 15 | 16.40 | 0.075000 | 41.649648 | 41.62752893 | 0 | 0 | 0 | 0 | 0 | 0 | 0 | 0 | STD5.60 |
| 2026-07-20 06:22:29 | 12 | 17.50 | 0.060000 | 41.649648 | 41.62752893 | 0 | 0 | 0 | 0 | 0 | 0 | 0 | 0 | STD5.60 |
| 2026-07-20 06:17:28 | 17 | 19.60 | 0.085000 | 41.649648 | 41.62752893 | 0 | 0 | 0 | 0 | 0 | 0 | 0 | 0 | STD5.60 |
| 2026-07-20 06:12:25 | 25 | 18.00 | 0.125000 | 41.649648 | 41.62752893 | 0 | 0 | 0 | 0 | 0 | 0 | 0 | 0 | STD5.60 |
| 2026-07-20 06:07:24 | 17 | 15.20 | 0.085000 | 41.649648 | 41.62752893 | 0 | 0 | 0 | 0 | 0 | 0 | 0 | 0 | STD5.60 |
| 2026-07-20 06:02:22 | 10 | 15.30 | 0.050000 | 41.649648 | 41.62752893 | 0 | 0 | 0 | 0 | 0 | 0 | 0 | 0 | STD5.60 |
| 2026-07-20 05:57:20 | 24 | 17.60 | 0.120000 | 41.649648 | 41.62752893 | 0 | 0 | 0 | 0 | 0 | 0 | 0 | 0 | STD5.60 |
| 2026-07-20 05:52:18 | 15 | 19.10 | 0.075000 | 41.649648 | 41.62752893 | 0 | 0 | 0 | 0 | 0 | 0 | 0 | 0 | STD5.60 |
| 2026-07-20 05:47:16 | 11 | 18.50 | 0.055000 | 41.649648 | 41.62752893 | 0 | 0 | 0 | 0 | 0 | 0 | 0 | 0 | STD5.60 |
| 2026-07-20 05:42:14 | 17 | 18.60 | 0.085000 | 41.649648 | 41.62752893 | 0 | 0 | 0 | 0 | 0 | 0 | 0 | 0 | STD5.60 |
| 2026-07-20 05:37:10 | 13 | 19.40 | 0.065000 | 41.649648 | 41.62752893 | 0 | 0 | 0 | 0 | 0 | 0 | 0 | 0 | STD5.60 |
| 2026-07-20 05:32:08 | 16 | 19.50 | 0.080000 | 41.649648 | 41.62752893 | 0 | 0 | 0 | 0 | 0 | 0 | 0 | 0 | STD5.60 |
| 2026-07-20 05:27:06 | 28 | 18.70 | 0.140000 | 41.649648 | 41.62752893 | 0 | 0 | 0 | 0 | 0 | 0 | 0 | 0 | STD5.60 |
| 2026-07-20 05:22:04 | 13 | 18.60 | 0.065000 | 41.649648 | 41.62752893 | 0 | 0 | 0 | 0 | 0 | 0 | 0 | 0 | STD5.60 |
| 2026-07-20 05:17:03 | 22 | 16.50 | 0.110000 | 41.649648 | 41.62752893 | 0 | 0 | 0 | 0 | 0 | 0 | 0 | 0 | STD5.60 |
| 2026-07-20 05:12:01 | 17 | 14.70 | 0.085000 | 41.649648 | 41.62752893 | 0 | 0 | 0 | 0 | 0 | 0 | 0 | 0 | STD5.60 |
| 2026-07-20 05:06:59 | 17 | 15.70 | 0.085000 | 41.649648 | 41.62752893 | 0 | 0 | 0 | 0 | 0 | 0 | 0 | 0 | STD5.60 |
| 2026-07-20 05:01:57 | 16 | 16.50 | 0.080000 | 41.649648 | 41.62752893 | 0 | 0 | 0 | 0 | 0 | 0 | 0 | 0 | STD5.60 |
| 2026-07-20 04:56:55 | 22 | 19.00 | 0.110000 | 41.649648 | 41.62752893 | 0 | 0 | 0 | 0 | 0 | 0 | 0 | 0 | STD5.60 |
| 2026-07-20 04:51:53 | 21 | 18.30 | 0.105000 | 41.649648 | 41.62752893 | 0 | 0 | 0 | 0 | 0 | 0 | 0 | 0 | STD5.60 |
| 2026-07-20 04:46:51 | 19 | 18.60 | 0.095000 | 41.649648 | 41.62752893 | 0 | 0 | 0 | 0 | 0 | 0 | 0 | 0 | STD5.60 |
| 2026-07-20 04:41:49 | 18 | 18.50 | 0.090000 | 41.649648 | 41.62752893 | 0 | 0 | 0 | 0 | 0 | 0 | 0 | 0 | STD5.60 |
| 2026-07-20 04:36:45 | 17 | 17.10 | 0.085000 | 41.649648 | 41.62752893 | 0 | 0 | 0 | 0 | 0 | 0 | 0 | 0 | STD5.60 |
| 2026-07-20 04:31:44 | 13 | 18.00 | 0.065000 | 41.649648 | 41.62752893 | 0 | 0 | 0 | 0 | 0 | 0 | 0 | 0 | STD5.60 |
| 2026-07-20 04:26:42 | 17 | 16.80 | 0.085000 | 41.649648 | 41.62752893 | 0 | 0 | 0 | 0 | 0 | 0 | 0 | 0 | STD5.60 |
| 2026-07-20 04:21:40 | 20 | 16.10 | 0.100000 | 41.649648 | 41.62752893 | 0 | 0 | 0 | 0 | 0 | 0 | 0 | 0 | STD5.60 |
| 2026-07-20 04:16:38 | 14 | 19.30 | 0.070000 | 41.649648 | 41.62752893 | 0 | 0 | 0 | 0 | 0 | 0 | 0 | 0 | STD5.60 |
| 2026-07-20 04:11:36 | 19 | 19.20 | 0.095000 | 41.649648 | 41.62752893 | 0 | 0 | 0 | 0 | 0 | 0 | 0 | 0 | STD5.60 |
| 2026-07-20 04:06:34 | 19 | 16.60 | 0.095000 | 41.649648 | 41.62752893 | 0 | 0 | 0 | 0 | 0 | 0 | 0 | 0 | STD5.60 |
| 2026-07-20 04:01:32 | 19 | 17.00 | 0.095000 | 41.649648 | 41.62752893 | 0 | 0 | 0 | 0 | 0 | 0 | 0 | 0 | STD5.60 |
| 2026-07-20 03:56:30 | 19 | 18.50 | 0.095000 | 41.649648 | 41.62752893 | 0 | 0 | 0 | 0 | 0 | 0 | 0 | 0 | STD5.60 |
| 2026-07-20 03:51:29 | 24 | 16.70 | 0.120000 | 41.649648 | 41.62752893 | 0 | 0 | 0 | 0 | 0 | 0 | 0 | 0 | STD5.60 |
| 2026-07-20 03:46:27 | 20 | 17.50 | 0.100000 | 41.649648 | 41.62752893 | 0 | 0 | 0 | 0 | 0 | 0 | 0 | 0 | STD5.60 |
| 2026-07-20 03:41:25 | 26 | 17.50 | 0.130000 | 41.649648 | 41.62752893 | 0 | 0 | 0 | 0 | 0 | 0 | 0 | 0 | STD5.60 |
| 2026-07-20 03:36:20 | 16 | 15.00 | 0.080000 | 41.649648 | 41.62752893 | 0 | 0 | 0 | 0 | 0 | 0 | 0 | 0 | STD5.60 |
| 2026-07-20 03:31:18 | 20 | 17.00 | 0.100000 | 41.649648 | 41.62752893 | 0 | 0 | 0 | 0 | 0 | 0 | 0 | 0 | STD5.60 |
| 2026-07-20 03:26:16 | 23 | 17.10 | 0.115000 | 41.649648 | 41.62752893 | 0 | 0 | 0 | 0 | 0 | 0 | 0 | 0 | STD5.60 |
| 2026-07-20 03:21:14 | 11 | 17.60 | 0.055000 | 41.649648 | 41.62752893 | 0 | 0 | 0 | 0 | 0 | 0 | 0 | 0 | STD5.60 |
| 2026-07-20 03:16:12 | 13 | 18.60 | 0.065000 | 41.649648 | 41.62752893 | 0 | 0 | 0 | 0 | 0 | 0 | 0 | 0 | STD5.60 |
| 2026-07-20 03:11:10 | 14 | 19.00 | 0.070000 | 41.649648 | 41.62752893 | 0 | 0 | 0 | 0 | 0 | 0 | 0 | 0 | STD5.60 |
| 2026-07-20 03:06:08 | 19 | 18.80 | 0.095000 | 41.649648 | 41.62752893 | 0 | 0 | 0 | 0 | 0 | 0 | 0 | 0 | STD5.60 |
| 2026-07-20 03:01:06 | 19 | 17.40 | 0.095000 | 41.649648 | 41.62752893 | 0 | 0 | 0 | 0 | 0 | 0 | 0 | 0 | STD5.60 |
| 2026-07-20 02:56:04 | 24 | 18.80 | 0.120000 | 41.649648 | 41.62752893 | 0 | 0 | 0 | 0 | 0 | 0 | 0 | 0 | STD5.60 |
| 2026-07-20 02:51:02 | 17 | 18.50 | 0.085000 | 41.649648 | 41.62752893 | 0 | 0 | 0 | 0 | 0 | 0 | 0 | 0 | STD5.60 |
| 2026-07-20 02:46:00 | 11 | 17.00 | 0.055000 | 41.649648 | 41.62752893 | 0 | 0 | 0 | 0 | 0 | 0 | 0 | 0 | STD5.60 |
| 2026-07-20 02:40:58 | 20 | 19.00 | 0.100000 | 41.649648 | 41.62752893 | 0 | 0 | 0 | 0 | 0 | 0 | 0 | 0 | STD5.60 |
| 2026-07-20 02:35:54 | 17 | 19.90 | 0.085000 | 41.649648 | 41.62752893 | 0 | 0 | 0 | 0 | 0 | 0 | 0 | 0 | STD5.60 |
| 2026-07-20 02:30:52 | 23 | 17.80 | 0.115000 | 41.649648 | 41.62752893 | 0 | 0 | 0 | 0 | 0 | 0 | 0 | 0 | STD5.60 |
| 2026-07-20 02:25:50 | 15 | 16.90 | 0.075000 | 41.649648 | 41.62752893 | 0 | 0 | 0 | 0 | 0 | 0 | 0 | 0 | STD5.60 |
| 2026-07-20 02:20:48 | 16 | 17.50 | 0.080000 | 41.649648 | 41.62752893 | 0 | 0 | 0 | 0 | 0 | 0 | 0 | 0 | STD5.60 |
| 2026-07-20 02:15:46 | 22 | 18.10 | 0.110000 | 41.649648 | 41.62752893 | 0 | 0 | 0 | 0 | 0 | 0 | 0 | 0 | STD5.60 |
| 2026-07-20 02:10:44 | 16 | 17.70 | 0.080000 | 41.649648 | 41.62752893 | 0 | 0 | 0 | 0 | 0 | 0 | 0 | 0 | STD5.60 |
| 2026-07-20 02:05:42 | 18 | 18.20 | 0.090000 | 41.649648 | 41.62752893 | 0 | 0 | 0 | 0 | 0 | 0 | 0 | 0 | STD5.60 |
| 2026-07-20 02:00:40 | 25 | 16.90 | 0.125000 | 41.649648 | 41.62752893 | 0 | 0 | 0 | 0 | 0 | 0 | 0 | 0 | STD5.60 |
| 2026-07-20 01:55:38 | 8 | 15.50 | 0.040000 | 41.649648 | 41.62752893 | 0 | 0 | 0 | 0 | 0 | 0 | 0 | 0 | STD5.60 |
| 2026-07-20 01:50:36 | 15 | 17.50 | 0.075000 | 41.649648 | 41.62752893 | 0 | 0 | 0 | 0 | 0 | 0 | 0 | 0 | STD5.60 |
| 2026-07-20 01:45:34 | 26 | 19.20 | 0.130000 | 41.649648 | 41.62752893 | 0 | 0 | 0 | 0 | 0 | 0 | 0 | 0 | STD5.60 |
| 2026-07-20 01:40:32 | 13 | 19.20 | 0.065000 | 41.649648 | 41.62752893 | 0 | 0 | 0 | 0 | 0 | 0 | 0 | 0 | STD5.60 |
| 2026-07-20 01:35:28 | 18 | 17.30 | 0.090000 | 41.649648 | 41.62752893 | 0 | 0 | 0 | 0 | 0 | 0 | 0 | 0 | STD5.60 |
| 2026-07-20 01:30:28 | 13 | 18.20 | 0.065000 | 41.649648 | 41.62752893 | 0 | 0 | 0 | 0 | 0 | 0 | 0 | 0 | STD5.60 |
| 2026-07-20 01:25:24 | 21 | 19.40 | 0.105000 | 41.649648 | 41.62752893 | 0 | 0 | 0 | 0 | 0 | 0 | 0 | 0 | STD5.60 |
| 2026-07-20 01:20:22 | 20 | 16.80 | 0.100000 | 41.649648 | 41.62752893 | 0 | 0 | 0 | 0 | 0 | 0 | 0 | 0 | STD5.60 |
| 2026-07-20 01:15:21 | 10 | 16.90 | 0.050000 | 41.649648 | 41.62752893 | 0 | 0 | 0 | 0 | 0 | 0 | 0 | 0 | STD5.60 |
| 2026-07-20 01:10:19 | 12 | 18.70 | 0.060000 | 41.649648 | 41.62752893 | 0 | 0 | 0 | 0 | 0 | 0 | 0 | 0 | STD5.60 |
| 2026-07-20 01:05:17 | 17 | 18.80 | 0.085000 | 41.649648 | 41.62752893 | 0 | 0 | 0 | 0 | 0 | 0 | 0 | 0 | STD5.60 |
| 2026-07-20 01:00:15 | 20 | 16.70 | 0.100000 | 41.649648 | 41.62752893 | 0 | 0 | 0 | 0 | 0 | 0 | 0 | 0 | STD5.60 |
| 2026-07-20 00:55:13 | 16 | 17.00 | 0.080000 | 41.649648 | 41.62752893 | 0 | 0 | 0 | 0 | 0 | 0 | 0 | 0 | STD5.60 |
| 2026-07-20 00:50:11 | 23 | 19.90 | 0.115000 | 41.649648 | 41.62752893 | 0 | 0 | 0 | 0 | 0 | 0 | 0 | 0 | STD5.60 |
| 2026-07-20 00:45:09 | 22 | 17.50 | 0.110000 | 41.649648 | 41.62752893 | 0 | 0 | 0 | 0 | 0 | 0 | 0 | 0 | STD5.60 |
| 2026-07-20 00:40:08 | 19 | 16.70 | 0.095000 | 41.649648 | 41.62752893 | 0 | 0 | 0 | 0 | 0 | 0 | 0 | 0 | STD5.60 |
| 2026-07-20 00:35:03 | 20 | 18.80 | 0.100000 | 41.649648 | 41.62752893 | 0 | 0 | 0 | 0 | 0 | 0 | 0 | 0 | STD5.60 |
| 2026-07-20 00:30:03 | 19 | 18.40 | 0.095000 | 41.649648 | 41.62752893 | 0 | 0 | 0 | 0 | 0 | 0 | 0 | 0 | STD5.60 |
| 2026-07-20 00:25:00 | 18 | 17.70 | 0.090000 | 41.649648 | 41.62752893 | 0 | 0 | 0 | 0 | 0 | 0 | 0 | 0 | STD5.60 |
| 2026-07-20 00:19:58 | 17 | 17.60 | 0.085000 | 41.649648 | 41.62752893 | 0 | 0 | 0 | 0 | 0 | 0 | 0 | 0 | STD5.60 |
| 2026-07-20 00:14:56 | 19 | 18.50 | 0.095000 | 41.649648 | 41.62752893 | 0 | 0 | 0 | 0 | 0 | 0 | 0 | 0 | STD5.60 |
| 2026-07-20 00:09:54 | 18 | 16.90 | 0.090000 | 41.649648 | 41.62752893 | 0 | 0 | 0 | 0 | 0 | 0 | 0 | 0 | STD5.60 |
| 2026-07-20 00:04:52 | 18 | 17.50 | 0.090000 | 41.649648 | 41.62752893 | 0 | 0 | 0 | 0 | 0 | 0 | 0 | 0 | STD5.60 |
| 2026-07-19 23:59:58 | 19 | 18.50 | 0.095000 | 41.649648 | 41.62752893 | 0 | 0 | 0 | 0 | 0 | 0 | 0 | 0 | STD5.60 |
| 2026-07-19 23:54:48 | 18 | 16.20 | 0.090000 | 41.649648 | 41.62752893 | 0 | 0 | 0 | 0 | 0 | 0 | 0 | 0 | STD5.60 |
| 2026-07-19 23:49:46 | 18 | 16.10 | 0.090000 | 41.649648 | 41.62752893 | 0 | 0 | 0 | 0 | 0 | 0 | 0 | 0 | STD5.60 |
| 2026-07-19 23:44:44 | 16 | 17.40 | 0.080000 | 41.649648 | 41.62752893 | 0 | 0 | 0 | 0 | 0 | 0 | 0 | 0 | STD5.60 |
| 2026-07-19 23:39:43 | 16 | 18.10 | 0.080000 | 41.649648 | 41.62752893 | 0 | 0 | 0 | 0 | 0 | 0 | 0 | 0 | STD5.60 |
| 2026-07-19 23:34:39 | 18 | 18.30 | 0.090000 | 41.649648 | 41.62752893 | 0 | 0 | 0 | 0 | 0 | 0 | 0 | 0 | STD5.60 |
| 2026-07-19 23:29:37 | 17 | 17.40 | 0.085000 | 41.649648 | 41.62752893 | 0 | 0 | 0 | 0 | 0 | 0 | 0 | 0 | STD5.60 |
| 2026-07-19 23:24:35 | 14 | 18.60 | 0.070000 | 41.649648 | 41.62752893 | 0 | 0 | 0 | 0 | 0 | 0 | 0 | 0 | STD5.60 |
| 2026-07-19 23:19:33 | 18 | 19.40 | 0.090000 | 41.649648 | 41.62752893 | 0 | 0 | 0 | 0 | 0 | 0 | 0 | 0 | STD5.60 |
| 2026-07-19 23:14:32 | 21 | 19.00 | 0.105000 | 41.649648 | 41.62752893 | 0 | 0 | 0 | 0 | 0 | 0 | 0 | 0 | STD5.60 |
| 2026-07-19 23:09:29 | 15 | 19.00 | 0.075000 | 41.649648 | 41.62752893 | 0 | 0 | 0 | 0 | 0 | 0 | 0 | 0 | STD5.60 |
| 2026-07-19 23:04:27 | 25 | 19.10 | 0.125000 | 41.649648 | 41.62752893 | 0 | 0 | 0 | 0 | 0 | 0 | 0 | 0 | STD5.60 |
| 2026-07-19 22:59:25 | 19 | 17.90 | 0.095000 | 41.649648 | 41.62752893 | 0 | 0 | 0 | 0 | 0 | 0 | 0 | 0 | STD5.60 |
| 2026-07-19 22:54:24 | 19 | 19.40 | 0.095000 | 41.649648 | 41.62752893 | 0 | 0 | 0 | 0 | 0 | 0 | 0 | 0 | STD5.60 |